Regional Weather Roundup
Issued by NWS

Home | Current Version | Previous Version | Graphics & Text | Print | Product List | Glossary On
Versions: 1 2 3 4 5 6 7 8 9 10 11 12 13 14 15 16 17 18 19 20 21 22 23 24 25 26 27 28
000
ASUS45 KTFX 212210
RWRMT
MONTANA REGIONAL WEATHER ROUNDUP
NATIONAL WEATHER SERVICE GREAT FALLS MT
300 PM MST TUE NOV 21 2017

NOTE: "FAIR" INDICATES FEW OR NO CLOUDS BELOW 12000 FEET WITH NO
SIGNIFICANT WEATHER AND/OR OBSTRUCTIONS TO VISIBILITY.

MTZ001>007-043-212300-
WEST OF THE DIVIDE

CITY           SKY/WX    TMP DP  RH WIND       PRES   REMARKS
KALISPELL      CLOUDY    42  36  79 SW3       30.16F
MISSOULA       LGT RAIN  37  36  96 CALM      30.21S
BUTTE          PTSUNNY   35  27  72 SE3       30.20R
MULLAN PASS    MIX PCPN  32  30  92 S7        30.11F VSB<1/4 WCI  26
ANACONDA         N/A     37  30  75 N6        30.17S
DEER LODGE       N/A     36  30  80 CALM      30.20F
EUREKA           N/A     45  34  65 MISG      30.14F
HAMILTON         N/A     37  34  87 CALM      30.19S
LIBBY            N/A     36  36 100 CALM      30.16F
PLAINS           N/A     37  34  89 MISG      30.18F
RONAN            N/A     42  37  82 NW2       30.19F
$$

MTZ008-052>055-212300-
SOUTHWEST MONTANA

CITY           SKY/WX    TMP DP  RH WIND       PRES   REMARKS
BOZEMAN        FAIR      35  31  85 SE5       30.20F
DILLON         PTSUNNY   42  32  67 S8        30.21S
W YELLOWSTONE  CLOUDY    36  34  93 SW7       30.32F WCI  30
ENNIS          CLOUDY    45  30  57 S12       30.26F
TWIN BRIDGES     N/A     42  30  62 CALM      30.17F
$$

MTZ009-010-012-014-046-048-049-054-212300-
EAST SLOPES AND CENTRAL MONTANA

CITY           SKY/WX    TMP DP  RH WIND       PRES   REMARKS
CUT BANK       FAIR      25  22  88 SE6       30.05F WCI  18
GREAT FALLS    FAIR      43  26  51 SW17      30.06F
MALMSTROM AFB  PTSUNNY   37  30  75 SW10      30.09S WCI  30
HELENA         FAIR      37  33  85 CALM      30.17F
BOWMANS CRNR   PTSUNNY   41  26  54 S22       30.06F
CHOTEAU          N/A     43  25  49 SW6       30.07S
FAIRFIELD      PTSUNNY   42  26  52 S10       30.06F
POWER          FAIR      39  26  59 S9        30.06F
RAYNESFORD     FAIR      48  18  30 SW18G25   30.06F
ULM            CLOUDY    45  25  44 S12       30.08F
$$

MTZ011-013-016-021-045-047-050-051-212300-
NORTH CENTRAL MONTANA

CITY           SKY/WX    TMP DP  RH WIND       PRES   REMARKS
HAVRE          FAIR      29  14  53 E6        30.14F WCI  23
LEWISTOWN      FAIR      42  28  57 CALM      30.08F
N BAR RANCH    FAIR      39  30  70 E3        30.12S
CHINOOK          N/A     27   9  46 E10G16    30.15S WCI  17
DENTON         FAIR      30  26  85 CALM      30.05F
GEYSER         FAIR      45  22  41 W21       30.05F
GRASS RANGE    FAIR      29  26  85 CALM      30.07F
STANFORD       FAIR      41  29  64 CALM      30.07S
WINIFRED       FAIR      25  22  88 E10       30.09F WCI  15
$$

MTZ017>020-022>027-061-062-212300-
NORTHEAST MONTANA

CITY           SKY/WX    TMP DP  RH WIND       PRES   REMARKS
GLASGOW        MOCLDY    18  -1  43 SE10      30.23F WCI   6
GLENDIVE       MOCLDY    24   8  50 S8        30.26F WCI  15
JORDAN           N/A     34  20  56 S10       30.17F WCI  26
SIDNEY         FAIR      20   1  43 CALM      30.30
WOLF POINT     MOCLDY    19   0  43 CALM      30.29F
MALTA          SUNNY     25   7  46 E13       30.20F WCI  13
PLENTYWOOD       N/A     16   1  53 CALM      30.27F
POPLAR           N/A     19  -2  38 SW3       30.30F
SCOBEY           N/A     16  -6  37 W5        30.21F
$$

MTZ028>42-056>058-212300-
SOUTHCENTRAL AND SOUTHEAST MONTANA

CITY           SKY/WX    TMP DP  RH WIND       PRES   REMARKS
BAKER          FAIR      26  10  50 SW8       30.26S WCI  18
BILLINGS       FAIR      38  32  79 S3        30.15F
LIVINGSTON     FAIR      42  31  64 NW17      30.16R
MILES CITY     FAIR      28  16  60 S10       30.25S WCI  19
BIG TIMBER     SUNNY     52  27  37 W24G31    30.14F
EKALAKA          N/A     28  14  55 SW2       30.18F
FORSYTH          N/A     34  25  69 E8        30.20F WCI  27
HARLOWTON      FAIR      38  29  70 CALM      30.12F
LAUREL           N/A     41  32  70 SW15      30.15F
ROUNDUP          N/A     35  26  70 S9        30.04F WCI  28
$$

REGIONAL REPORTS...DAKOTAS

CITY           SKY/WX    TMP DP  RH WIND       PRES   REMARKS
WILLISTON      FAIR      16  -1  47 W6        30.32F WCI   7
MINOT          FAIR      16   4  59 W10       30.32S WCI   4
DICKINSON      FAIR      20   1  43 NW8       30.25S WCI  10
BEACH          FAIR      21   0  39 W7        30.28F WCI  13
CROSBY         FAIR       9   0  66 W9        30.34R WCI  -5
TIOGA          FAIR      10   0  61 W9        30.30F WCI  -2
WATFORD CITY   FAIR      16   0  48 W7        30.31S WCI   6
BISMARCK       FAIR      24   7  48 NW7       30.35F WCI  16
GRAND FORKS    MOCLDY    21  13  71 NW12      30.33R WCI   9
FARGO          FAIR      22  10  60 NW16      30.34R WCI   8
BUFFALO SD       N/A     32   9  38 W9        30.19F WCI  24
RAPID CITY     FAIR      34  20  56 N6        30.28F WCI  29
$$

REGIONAL REPORTS...WYOMING/IDAHO/WASHINGTON

CITY           SKY/WX    TMP DP  RH WIND       PRES   REMARKS
GILLETTE       FAIR      44  26  49 SW9       30.20F
SHERIDAN       FAIR      43  34  70 CALM      30.18F
BUFFALO WY     FAIR      43  27  53 S12       30.19F
CODY           FAIR      46  31  55 SE14      30.18F
YELLOWSTONE LA   N/A     34  30  85 VRB3      30.36R
IDAHO FALLS    CLOUDY    41  39  93 VRB3      30.34S
SALMON         LGT RAIN  39  36  89 CALM      30.29R
BOISE          CLOUDY    56  48  74 SE7       30.24F
SPOKANE        LGT RAIN  39  39 100 E7        30.12F VSB 1/2
$$

REGIONAL REPORTS...ALBERTA

CITY           SKY/WX    TMP DP  RH WIND       PRES   REMARKS
EDMONTON       CLOUDY     9   0  66 S9        30.06F WCI  -5
CALGARY        CLOUDY    14   9  79 S12       29.95F WCI   0
LETHBRIDGE     PTSUNNY   23  18  80 VRB2      30.03F
MEDICINE HAT   PTSUNNY   19  10  68 NE9       30.11F WCI   9
$$

REGIONAL REPORTS...SASKATCHEWAN

CITY           SKY/WX    TMP DP  RH WIND       PRES   REMARKS
SWIFT CURRENT  CLOUDY    12   3  67 S12       30.15S WCI  -2
REGINA         PTCLDY     1  -4  78 SW7       30.29F WCI -11
SASKATOON      MOCLDY     3  -2  78 S9        30.28F WCI -11
$$




USA.gov is the U.S. government's official web portal to all federal, state and local government web resources and services.